Weather Roundup
Issued by NWS Chicago, IL

Home | Current Version | Previous Version | Graphics & Text | Print | Product List | Glossary On
Versions: 1 2 3 4 5 6 7 8 9 10 11 12 13 14 15 16 17 18 19 20 21 22 23 24 25 26 27 28 29 30 31 32 33 34 35 36 37 38 39 40 41 42 43 44 45 46 47 48 49 50
000
NZUS59 KLOT 300108
HRRLOT

CHICAGO AREA WEATHER ROUNDUP
NATIONAL WEATHER SERVICE CHICAGO/ROMEOVILLE IL
800 PM CDT FRI APR 29 2016

NOTE: "FAIR" INDICATES FEW OR NO CLOUDS BELOW 12,000 FEET WITH NO
SIGNIFICANT WEATHER AND/OR OBSTRUCTIONS TO VISIBILITY.

* THESE STATIONS ARE NOT UNDER NWS QUALITY CONTROL. THEY ALSO MAY NOT
  REPORT WEATHER SUCH AS PRECIPITATION OR FOG.

ILZ005-006-012>014-019>023-300200-
NORTHEAST ILLINOIS

CITY           SKY/WX    TMP DP  RH WIND       PRES   REMARKS
OHARE          CLOUDY    44  38  79 NE9       30.14R
MIDWAY         CLOUDY    45  38  76 N10       30.14R
AURORA         CLOUDY    48  42  80 N5        30.13R
LANSING*       CLOUDY    43  39  84 NE6       30.14R FOG
JOLIET*        CLOUDY    49  42  75 E10       30.13R
WAUKEGAN       CLOUDY    42  37  82 CALM      30.14R
DUPAGE AIRPORT CLOUDY    47  38  71 E12       30.12R
WHEELING       CLOUDY    42  37  82 E5        30.16R
KANKAKEE*      CLOUDY    48  41  77 NE9       30.12R
MORRIS*        CLOUDY    48  42  80 CALM      30.11R
LEWIS AIRPORT* CLOUDY    46  39  76 E9        30.13R
$$

WIZ051-052-058>065-066-070>072-300200-
SOUTHEAST WISCONSIN

CITY           SKY/WX    TMP DP  RH WIND       PRES   REMARKS
MILWAUKEE      PTCLDY    41  33  73 NE6       30.14S
KENOSHA*       PTCLDY    41  35  79 E7        30.15R
RACINE*        CLEAR     40  34  79 NE6       30.16R
BURLINGTON     CLEAR     43  36  77 E7        30.14R
WAUKESHA       CLEAR     43  34  70 E6        30.13S
WEST BEND      PTCLDY    43  34  70 E7        30.15S
$$

INZ001>003-010>013-019-020-300200-
NORTHWEST INDIANA

CITY           SKY/WX    TMP DP  RH WIND       PRES   REMARKS
GARY*          CLOUDY    43  43 100 N7        30.15R
MICHIGAN CITY* NOT AVBL
RENSSELAER*    NOT AVBL
VALPARAISO     CLOUDY    44  40  85 N6        30.14R
$$

LMZ740>746-300200-
SOUTHERN LAKE MICHIGAN

STATION/POSITION TIME  SKY/WX   TEMP WIND        PRES    VSBY
                                AIR  DIR/SP/G
                 (UTC)          (F)  (DEG/KT/KT) (MB)    (MI)
HARRISON CRIB    0000            41  360/  9/ 10   N/A
BURNHAM HARBOR   0100            41   20/  8/ 11   N/A
CALUMET HARBOR   0000                            1019.9R
BURNS HARBOR     0000            42   10/  8/ 10 1020.7
MICHIGAN CITY    0000            42  360/  9/ 10   N/A
$$

ABBREVIATIONS USED IN REMARKS
   TC - TEMPERATURE IN CELSIUS
  WCI - WIND CHILL INDEX
   HX - HEAT INDEX
  VSB - VISIBILITY
$$




USA.gov is the U.S. government's official web portal to all federal, state and local government web resources and services.